ALAKES Weather Reports


Display with metric or nautical units.
time (UTC)temp
F
wind
direction
speed
MPH
gust
MPH
rain 1hr
in
rain 24hr
in
rain mn
in
humidity
%
barometer
mb
20201127085227 121 202 5.0 9.0 0.00 0.00 0.00 54
20201127085100 121 181 7.0 9.0 0.00 0.00 0.00 51
20201127084036 121 202 5.0 9.0 0.00 0.00 0.00 54
20201127083014 121 187 7.0 8.0 0.00 0.00 0.00 52
20201127082734 121 191 7.0 5.0 0.00 0.00 0.00 53
20201127081932 121 191 7.0 5.0 0.00 0.00 0.00 53
20201127081541 121 182 6.0 7.0 0.00 0.00 0.00 54
20201127080858 121 182 6.0 7.0 0.00 0.00 0.00 54
20201127075824 121 189 5.0 7.0 0.00 0.00 0.00 55
20201127075542 121 215 4.0 6.0 0.00 0.00 0.00 56
20201127074750 121 215 4.0 6.0 0.00 0.00 0.00 56
20201127074429 121 157 2.0 3.0 0.00 0.00 0.00 48
20201127073820 121 180 0.0 0.0 0.00 0.00 0.00 49
20201127073715 121 157 2.0 3.0 0.00 0.00 0.00 48
20201127072801 121 203 0.0 1.0 0.00 0.00 0.00 50
20201127072640 121 180 0.0 0.0 0.00 0.00 0.00 49
20201127071607 121 203 0.0 1.0 0.00 0.00 0.00 50
20201127071319 121 248 0.0 0.0 0.00 0.00 0.00 51
20201127070526 121 248 0.0 0.0 0.00 0.00 0.00 51
20201127065444 121 248 0.0 2.0 0.00 0.00 0.00 54
20201127064413 121 322 0.0 0.0 0.00 0.00 0.00
20201127064348 121 191 0.0 0.0 0.00 0.00 0.00 59
20201127063326 121 191 0.0 0.0 0.00 0.00 0.00 59
20201127062254 121 191 0.0 0.0 0.00 0.00 0.00 57
20201127061942 121 191 0.0 0.0 0.00 0.00 0.00 59
20201127061213 121 191 0.0 0.0 0.00 0.00 0.00 59
20201127060134 121 191 0.0 0.0 0.00 0.00 0.00 62
20201127055107 121 191 0.0 0.0 0.00 0.00 0.00 64
20201127054030 121 191 0.0 2.0 0.00 0.00 0.00 63
20201127053833 121 293 0.0 5.0 0.00 0.00 0.00 62
20201127052950 121 305 3.0 0.0 0.00 0.00 0.00 51
20201127051923 121 305 3.0 0.0 0.00 0.00 0.00 51
20201127050849 121 286 0.0 3.0 0.00 0.00 0.00 60
20201127050622 121 299 3.0 5.0 0.00 0.00 0.00 58
20201127045809 121 299 3.0 5.0 0.00 0.00 0.00 58
20201127045525 0 306 2.0 999.0 0.00 1.61 0.00 100 1488.0
20201127044735 0 306 2.0 999.0 0.00 1.61 0.00 100 1488.0
20201127044344 120 319 0.0 5.0 0.00 0.00 0.00 76
20201127043654 120 319 0.0 5.0 0.00 0.00 0.00 76
20201127042625 120 329 1.0 3.0 0.00 0.00 0.00 80
20201127041541 120 300 0.0 0.0 0.00 0.00 0.00 93
20201127041145 120 104 0.0 0.0 0.00 0.00 0.00 95
20201127040508 120 104 0.0 0.0 0.00 0.00 0.00 95
20201127040341 120 215 2.0 4.0 0.00 0.00 0.00 95
20201127035427 120 215 2.0 4.0 0.00 0.00 0.00 95
20201127034340 120 188 2.0 4.0 0.00 0.00 0.00 94
20201127034053 120 279 1.0 2.0 0.00 0.00 0.00 95
20201127033301 120 279 1.0 2.0 0.00 0.00 0.00 95
20201127032817 120 233 2.0 3.0 0.00 0.00 0.00 95
20201127032234 120 233 2.0 3.0 0.00 0.00 0.00 95
20201127031848 120 203 1.0 3.0 0.00 0.00 0.00 95
20201127031147 120 203 1.0 3.0 0.00 0.00 0.00 95
20201127030904 120 293 1.0 4.0 0.00 0.00 0.00 95
20201127030107 120 293 1.0 4.0 0.00 0.00 0.00 95
20201127025041 120 222 1.0 5.0 0.00 0.00 0.00 95
20201127024018 120 232 2.0 3.0 0.00 0.00 0.00 96
20201127022945 120 223 1.0 4.0 0.00 0.00 0.00 96
20201127022941 120 194 0.0 2.0 0.00 0.00 0.00 96
20201127021912 120 223 1.0 4.0 0.00 0.00 0.00 96
20201127020831 120 216 3.0 5.0 0.00 0.00 0.00 96
20201127015757 120 206 5.0 5.0 0.00 0.00 0.00 95
20201127015650 120 194 3.0 6.0 0.00 0.00 0.00 96
20201127014720 120 194 3.0 6.0 0.00 0.00 0.00 96
20201127014308 120 220 5.0 6.0 0.00 0.00 0.00 96
20201127013643 120 220 5.0 6.0 0.00 0.00 0.00 96
20201127013246 120 202 3.0 5.0 0.00 0.00 0.00 96
20201127012607 120 202 3.0 5.0 0.00 0.00 0.00 96
20201127012543 120 219 4.0 4.0 0.00 0.00 0.00 96
20201127011539 120 219 4.0 4.0 0.00 0.00 0.00 96
20201127010513 120 171 0.0 4.0 0.00 0.00 0.00 96
20201127005429 120 170 1.0 4.0 0.00 0.00 0.00 96
20201127005227 120 143 1.0 7.0 0.00 0.00 0.00 96
20201127004358 120 143 1.0 7.0 0.00 0.00 0.00 96
20201127003326 120 212 4.0 4.0 0.00 0.00 0.00 95
20201127002412 120 142 2.0 5.0 0.00 0.00 0.00 95
20201127002256 120 168 1.0 5.0 0.00 0.00 0.00 95
20201127001231 120 142 2.0 5.0 0.00 0.00 0.00 95
20201127000153 120 188 0.0 5.0 0.00 0.00 0.00 95
20201127000132 120 149 0.0 4.0 0.00 0.00 0.00 96
20201126235134 120 206 0.0 2.0 0.00 0.00 0.00 96
20201126235118 120 149 0.0 4.0 0.00 0.00 0.00 96
20201126234051 120 206 0.0 2.0 0.00 0.00 0.00 96
20201126234032 120 105 0.0 2.0 0.00 0.00 0.00 96
20201126233022 120 105 0.0 2.0 0.00 0.00 0.00 96
20201126232832 120 153 0.0 4.0 0.00 0.00 0.00 96
20201126231942 120 153 0.0 4.0 0.00 0.00 0.00 96
20201126230909 120 246 0.0 1.0 0.00 0.00 0.00 96
20201126230833 120 213 0.0 3.0 0.00 0.00 0.00 96
20201126225840 120 213 0.0 3.0 0.00 0.00 0.00 96
20201126225714 120 170 0.0 3.0 0.00 0.00 0.00 96
20201126224806 120 170 0.0 3.0 0.00 0.00 0.00 96
20201126224449 121 171 2.0 2.0 0.00 0.00 0.00 96
20201126223735 121 171 2.0 2.0 0.00 0.00 0.00 96
20201126223420 120 57 1.0 3.0 0.00 0.00 0.00 96
20201126222711 120 57 1.0 3.0 0.00 0.00 0.00 96
20201126222227 120 219 2.0 0.0 0.00 0.00 0.00 96
20201126221637 120 219 2.0 0.0 0.00 0.00 0.00 96
20201126220559 120 219 0.0 3.0 0.00 0.00 0.00 96
20201126220212 120 167 2.0 2.0 0.00 0.00 0.00 96
20201126215536 120 167 2.0 2.0 0.00 0.00 0.00 96
20201126215412 120 167 1.0 2.0 0.00 0.00 0.00 96
20201126214459 120 167 1.0 2.0 0.00 0.00 0.00 96
20201126214119 120 181 0.0 0.0 0.00 0.00 0.00 96
20201126213429 120 181 0.0 0.0 0.00 0.00 0.00 96
20201126213154 120 181 0.0 0.0 0.00 0.00 0.00 96
20201126212358 120 181 0.0 0.0 0.00 0.00 0.00 96
20201126211332 120 181 0.0 1.0 0.00 0.00 0.00 96
20201126211031 120 196 0.0 1.0 0.00 0.00 0.00 79 1566.4
20201126210257 120 196 0.0 1.0 0.00 0.00 0.00 79 1566.4
20201126205216 120 185 0.0 1.0 0.00 0.00 0.00 96
20201126204148 120 147 0.0 0.0 0.00 0.00 0.00 96
20201126203122 120 234 0.0 0.0 0.00 0.00 0.00 96
20201126203023 120 212 0.0 2.0 0.00 0.00 0.00
20201126202049 120 212 0.0 2.0 0.00 0.00 0.00
20201126201848 120 209 0.0 2.0 0.00 0.00 0.00 96
20201126201012 120 158 0.0 1.0 0.00 0.00 0.00 96
20201126195949 120 174 0.0 2.0 0.00 0.00 0.00 96
20201126195942 120 158 0.0 1.0 0.00 0.00 0.00 96
20201126194918 120 174 0.0 2.0 0.00 0.00 0.00 96
20201126193849 120 202 0.0 2.0 0.00 0.00 0.00 96
20201126193639 120 189 0.0 3.0 0.00 0.00 0.00 96
20201126192812 120 189 0.0 3.0 0.00 0.00 0.00 96
20201126191745 120 195 0.0 0.0 0.00 0.00 0.00 96
20201126191341 120 195 0.0 0.0 0.00 0.00 0.00 96
20201126190715 120 195 0.0 0.0 0.00 0.00 0.00 96
20201126190353 120 195 0.0 0.0 0.00 0.00 0.00 96
20201126185647 120 195 0.0 0.0 0.00 0.00 0.00 96
20201126185553 119 195 0.0 0.0 0.00 0.00 0.00 96
20201126184622 119 195 0.0 0.0 0.00 0.00 0.00 96
20201126184355 120 195 0.0 0.0 0.00 0.00 0.00 96
20201126183540 120 195 0.0 0.0 0.00 0.00 0.00 96
20201126182511 120 195 0.0 0.0 0.00 0.00 0.00
20201126182229 120 195 0.0 0.0 0.00 0.00 0.00 96
20201126181448 120 195 0.0 0.0 0.00 0.00 0.00 96
20201126180407 120 195 0.0 0.0 0.00 0.00 0.00 96
20201126175339 -27 0 0.0 999.0 0.00 0.01 0.00 78 3276.9
20201126174307 120 195 0.0 0.0 0.00 0.00 0.00
20201126174136 120 194 0.0 0.0 0.00 0.00 0.00 96
20201126173241 120 194 0.0 0.0 0.00 0.00 0.00 96
20201126173140 120 194 0.0 0.0 0.00 0.00 0.00 96
20201126172216 120 194 0.0 0.0 0.00 0.00 0.00 96
20201126171144 120 194 0.0 2.0 0.00 0.00 0.00 96
20201126170847 120 203 0.0 0.0 0.00 0.00 0.00 96
20201126170109 120 203 0.0 0.0 0.00 0.00 0.00 96
20201126165026 120 203 0.0 0.0 0.00 0.00 0.00 96
20201126164650 120 203 0.0 0.0 0.00 0.00 0.00 96
20201126163948 120 203 0.0 0.0 0.00 0.00 0.00 96
20201126163817 119 203 0.0 0.0 0.00 0.00 0.00 96
20201126162922 119 203 0.0 0.0 0.00 0.00 0.00 96
20201126161845 120 203 0.0 0.0 0.00 0.00 0.00 96
20201126160808 120 203 0.0 0.0 0.00 0.00 0.00 96
20201126160441 119 203 0.0 0.0 0.00 0.00 0.00 96
20201126155745 0 213 0.0 999.0 0.00 0.00 0.00 34 1616.0
20201126155726 119 203 0.0 0.0 0.00 0.00 0.00 96
20201126154731 0 213 0.0 999.0 0.00 0.00 0.00 34 1616.0
20201126154244 120 213 0.0 0.0 0.00 0.00 0.00 96
20201126153605 120 213 0.0 0.0 0.00 0.00 0.00 96
20201126152539 120 255 0.0 0.0 0.00 0.00 0.00 96
20201126151524 120 206 0.0 1.0 0.00 0.00 0.00 96
20201126151133 120 288 0.0 0.0 0.00 0.00 0.00 95
20201126150440 120 288 0.0 0.0 0.00 0.00 0.00 95
20201126145525 120 225 0.0 0.0 0.00 0.00 0.00 95
20201126145410 120 288 0.0 0.0 0.00 0.00 0.00 95
20201126144337 120 225 0.0 0.0 0.00 0.00 0.00 95
20201126144319 120 216 0.0 2.0 0.00 0.00 0.00 95
20201126143309 120 216 0.0 2.0 0.00 0.00 0.00 95
20201126142240 120 216 1.0 0.0 0.00 0.00 0.00 95
20201126142226 121 208 0.0 0.0 0.00 8.54 0.00 22
20201126141215 121 208 0.0 0.0 0.00 8.54 0.00 22
20201126140141 120 205 0.0 0.0 0.00 0.00 0.00 95
20201126140113 120 205 0.0 0.0 0.00 0.00 0.00 95
20201126135106 120 205 0.0 0.0 0.00 0.00 0.00 95
20201126134838 120 205 0.0 0.0 0.00 0.00 0.00 95
20201126134039 120 205 0.0 0.0 0.00 0.00 0.00 95
20201126133027 120 205 0.0 0.0 0.00 0.00 0.00 95
20201126131949 120 205 0.0 0.0 0.00 0.00 0.00 95
20201126130919 120 205 0.0 0.0 0.00 0.00 0.00 95
20201126125849 120 205 0.0 0.0 0.00 0.00 0.00 95
20201126125345 120 205 0.0 0.0 0.00 0.00 0.00 95
20201126124820 120 205 0.0 0.0 0.00 0.00 0.00 95
20201126123743 119 240 0.0 0.0 0.00 0.00 0.00 95
20201126123209 120 240 0.0 0.0 0.00 0.00 0.00 95
20201126122716 120 240 0.0 0.0 0.00 0.00 0.00 95
20201126121655 120 240 0.0 0.0 0.00 0.00 0.00 95
20201126120618 120 240 0.0 0.0 0.00 0.00 0.00 95
20201126120155 120 240 0.0 0.0 0.00 0.00 0.00 95
20201126115548 120 240 0.0 0.0 0.00 0.00 0.00 95
20201126114529 120 240 0.0 0.0 0.00 0.00 0.00 95
20201126113445 120 240 0.0 0.0 0.00 0.00 0.00 95
20201126112429 120 240 0.0 0.0 0.00 0.00 0.00
20201126112140 120 240 0.0 0.0 0.00 0.00 0.00 95
20201126111358 120 240 0.0 0.0 0.00 0.00 0.00 95
20201126110943 120 240 0.0 0.0 0.00 0.00 0.00 95
20201126110333 120 240 0.0 0.0 0.00 0.00 0.00 95
20201126105837 120 240 0.0 0.0 0.00 0.00 0.00 95
20201126105305 120 240 0.0 0.0 0.00 0.00 0.00 95
20201126105301 120 240 0.0 0.0 0.00 0.00 0.00 95
20201126105127 120 240 0.0 0.0 0.00 0.00 0.00 95
20201126104229 120 240 0.0 0.0 0.00 0.00 0.00 95
20201126103850 119 240 0.0 0.0 0.00 0.00 0.00 95
20201126103205 119 240 0.0 0.0 0.00 0.00 0.00 95
20201126102816 120 240 0.0 0.0 0.00 0.00 0.00 95
20201126102138 120 240 0.0 0.0 0.00 0.00 0.00 95
20201126101604 120 240 0.0 0.0 0.00 0.00 0.00 95
20201126101101 120 240 0.0 0.0 0.00 0.00 0.00 95
20201126100034 120 240 0.0 0.0 0.00 0.00 0.00 95
20201126095021 120 240 0.0 0.0 0.00 0.00 0.00 95
20201126094558 120 240 0.0 0.0 0.00 0.00 0.00 95
20201126093941 120 240 0.0 0.0 0.00 0.00 0.00 95
20201126092912 120 240 0.0 0.0 0.00 0.00 0.00 95
20201126091848 120 240 0.0 0.0 0.00 0.00 0.00 95
20201126091129 120 240 0.0 0.0 0.00 0.00 0.00 95
20201126090814 120 240 0.0 0.0 0.00 0.00 0.00 95
20201126085746 120 240 0.0 0.0 0.00 0.00 0.00 95